Wind_Speed
21 21 21 21 20 18 18 18 19 19 18 18 16 16 16 16 16 16 17 18 18 18 19 19 20 21 21 21 21 21 22 22 23 23 23 23 24 24 24 23 23 23 24
21 21 21 20 19 19 18 19 19 19 18 16 16 16 16 16 16 16 16 17 18 19 19 19 20 20 20 20 20 20 21 21 22 22 22 22 22 22 23 23 23 24 24
21 20 19 19 20 20 19 19 19 20 19 18 16 16 16 16 16 16 17 17 17 18 18 19 19 20 20 20 19 19 20 20 21 22 22 21 22 22 22 22 23 24 25
20 20 19 19 20 20 20 20 20 20 19 18 16 15 15 15 16 16 16 16 17 18 18 18 18 19 18 19 19 19 19 20 20 21 22 22 22 21 22 23 24 24 25
20 20 20 19 20 20 19 19 19 20 19 18 16 15 15 15 14 14 14 15 16 17 17 17 17 18 18 18 19 19 19 19 20 21 21 21 21 22 22 23 24 24 24
20 20 20 20 19 19 18 18 18 19 18 17 17 16 16 15 15 15 14 14 15 15 16 16 16 16 17 17 17 18 18 18 18 19 20 20 21 21 22 23 23 24 24
20 20 20 20 19 18 18 18 17 17 17 16 16 16 16 17 16 15 14 14 14 13 13 14 14 15 15 16 16 16 17 17 17 17 19 20 20 21 21 22 22 23 23
20 20 20 20 19 18 17 17 17 17 17 16 16 16 16 16 14 14 14 14 14 13 12 12 13 13 14 14 15 15 16 16 17 17 18 19 20 21 21 21 21 21 22
20 19 19 19 19 18 17 17 16 17 17 16 16 16 16 15 14 13 13 13 13 13 12 12 12 13 13 13 13 13 14 15 15 16 16 17 18 19 20 20 21 21 22
19 19 19 19 18 18 17 17 17 17 17 15 15 15 15 14 13 12 11 12 12 12 12 12 12 12 12 13 13 13 14 14 15 15 16 17 17 18 19 19 20 20 21
18 18 18 18 18 18 17 17 17 16 16 14 14 14 13 13 13 13 13 12 12 12 12 12 12 11 11 12 13 13 13 14 14 16 17 17 18 18 19 19 20 21 22
19 18 18 17 16 17 17 16 16 15 15 15 14 13 11 11 12 12 12 12 12 12 11 12 12 12 13 13 13 14 15 15 15 16 17 18 19 19 19 20 20 21 21
19 18 18 18 17 16 16 16 16 16 16 16 15 14 14 13 12 12 12 12 12 12 12 12 13 13 13 14 15 15 16 16 17 17 18 19 19 19 19 19 19 20 20
19 19 18 18 18 17 17 17 17 16 16 17 16 16 16 15 14 14 14 13 13 14 13 13 14 14 15 16 16 16 16 17 17 18 18 19 20 20 20 20 20 20 21
21 21 20 20 19 18 18 18 18 18 18 17 17 17 17 16 16 16 16 15 15 15 15 15 15 15 16 16 17 17 17 17 18 19 20 20 20 20 20 21 21 21 22
22 22 21 21 20 19 18 18 19 19 18 18 17 17 17 17 17 16 16 16 16 15 15 16 16 17 17 17 17 18 18 18 19 19 20 20 20 20 20 21 22 22 22
21 21 21 21 20 19 19 19 19 20 19 18 18 18 17 17 17 16 16 17 17 16 16 17 17 18 18 18 18 19 19 19 20 20 20 20 19 19 20 21 21 21 22
21 21 21 21 21 21 20 19 19 19 19 18 18 18 18 17 18 18 18 18 18 17 18 18 18 19 19 19 19 19 20 20 20 20 20 20 20 20 21 21 21 22 22
21 21 22 22 21 21 20 19 18 18 19 19 19 18 18 18 18 19 19 19 19 20 20 20 20 21 21 20 20 20 21 21 20 20 20 20 21 21 21 21 22 22 23
21 21 21 21 21 20 20 19 18 18 19 19 19 19 19 19 19 19 19 20 20 20 21 21 21 22 22 22 21 21 21 20 20 20 21 21 21 21 21 22 22 23 23
21 21 22 21 20 20 19 19 19 19 19 20 20 20 20 21 20 20 20 20 20 21 21 21 21 21 21 21 21 21 21 21 21 21 21 21 21 22 22 22 23 24 25
20 21 21 21 20 20 20 20 20 20 20 20 20 21 22 21 21 21 21 21 22 22 22 22 22 22 21 21 21 22 22 21 21 22 22 22 22 22 23 23 23 24 25
20 20 21 20 20 19 20 20 20 21 20 20 21 21 22 22 21 21 22 22 22 22 23 23 22 21 21 21 22 22 23 23 23 23 23 23 24 23 24 24 24 25 26
20 20 21 21 20 20 21 21 21 21 21 21 22 22 22 21 21 21 22 22 22 22 22 21 20 20 21 22 22 23 24 24 24 25 25 25 25 25 25 25 25 25 26
20 20 21 20 21 22 22 22 21 21 21 21 22 22 21 21 22 23 23 22 22 22 22 21 20 20 21 22 23 24 24 24 24 25 25 26 26 26 25 25 25 25 26
21 21 22 22 22 23 23 23 23 22 21 21 22 22 21 22 22 22 23 23 22 22 22 22 22 22 22 22 23 23 24 25 25 26 25 25 26 25 25 25 25 25 26
Wind_Direction
275 277 279 282 281 282 285 288 293 294 290 286 282 275 273 273 270 268 265 262 260 259 260 262 263 263 263 263 265 267 268 268 268 270 272 270 268 267 268 268 270 272 273
274 277 279 280 279 279 282 285 288 290 289 285 282 276 274 273 271 267 265 262 260 260 261 263 264 263 264 266 267 269 270 269 269 271 271 270 267 265 267 268 269 272 274
271 275 277 277 278 279 282 283 285 286 288 288 283 280 275 271 269 267 266 262 262 262 262 262 264 265 266 268 270 270 270 269 269 270 269 269 268 266 267 269 271 274 276
270 272 275 278 279 280 280 281 283 284 285 285 280 280 277 274 272 270 267 264 262 260 262 262 264 266 267 269 270 270 270 270 270 270 269 268 269 269 268 269 272 275 278
270 272 274 278 280 280 279 279 280 282 283 281 275 274 273 273 272 270 270 266 262 261 263 263 263 263 265 267 268 269 271 270 271 271 270 269 270 270 271 272 275 277 279
269 271 272 275 278 278 277 277 277 279 279 278 274 270 271 273 273 271 271 268 265 265 265 265 262 262 263 266 268 271 273 272 273 273 271 271 272 272 273 275 276 278 279
268 268 269 271 274 275 275 275 274 277 276 275 274 271 273 273 272 271 268 268 269 270 268 264 264 263 264 265 267 271 275 274 274 276 276 275 274 274 276 276 278 279 280
269 270 268 270 272 271 271 270 272 274 276 275 274 272 271 270 269 267 266 265 265 267 265 265 264 264 265 267 268 273 274 275 277 278 279 279 279 279 279 280 281 284 284
267 268 267 268 268 267 268 268 269 273 275 274 273 270 268 265 265 266 265 262 263 263 264 265 265 266 269 273 273 275 277 279 280 282 282 283 285 286 286 284 284 285 286
267 265 265 265 263 263 265 266 268 271 271 270 268 265 264 263 265 265 266 264 265 268 268 268 270 272 275 277 279 280 280 281 282 283 284 286 288 289 288 287 286 287 286
266 264 263 262 260 260 261 261 264 267 270 268 263 260 260 260 261 264 265 265 269 272 273 274 276 280 284 282 282 281 281 283 284 284 284 285 288 290 290 289 288 288 288
264 262 260 260 261 259 258 258 258 260 265 263 258 254 255 256 257 261 267 270 273 275 274 274 277 279 282 284 285 286 288 290 290 288 287 288 290 291 290 290 289 288 289
262 260 258 259 261 260 259 259 258 259 262 263 259 258 260 260 260 261 263 264 268 271 271 272 275 279 283 284 286 289 290 291 290 290 289 288 290 290 290 290 290 291 292
259 258 258 260 261 260 260 260 260 262 264 263 260 259 258 258 259 259 259 261 263 265 267 272 275 278 282 286 288 292 293 294 292 292 294 293 292 293 291 290 290 290 292
258 257 259 260 259 258 259 259 260 262 262 260 257 257 256 257 258 258 260 263 264 264 267 271 277 280 283 286 288 291 292 294 296 296 295 293 292 291 290 289 290 291 291
256 256 258 257 258 255 255 257 260 261 259 256 256 256 256 258 258 256 258 262 263 265 269 273 277 281 284 287 289 291 292 293 296 298 297 294 294 295 294 294 294 292 291
253 253 254 255 254 254 255 257 259 258 257 256 256 258 258 257 255 255 257 261 264 265 269 273 277 281 283 286 289 291 293 294 295 296 298 297 296 296 296 295 296 294 293
254 251 251 252 253 254 255 258 257 255 254 252 252 255 257 256 254 254 256 259 263 267 270 273 277 281 284 286 288 291 294 294 293 294 295 296 296 295 295 296 296 295 295
252 250 249 251 253 253 253 255 254 254 253 251 251 254 256 255 256 257 259 261 264 267 270 274 278 281 283 286 288 290 292 293 292 291 293 295 297 296 295 296 296 296 297
250 250 250 251 251 250 251 254 253 252 251 251 252 254 257 258 259 260 262 266 269 271 273 274 277 280 281 284 286 287 290 291 290 291 293 294 295 296 296 296 296 298 298
252 250 249 251 250 248 251 253 252 252 252 251 253 256 257 260 262 264 265 268 271 274 274 276 278 280 282 283 285 286 288 289 290 291 292 294 294 295 295 296 296 297 297
259 253 252 252 251 250 250 249 250 254 256 257 258 259 261 262 264 267 268 269 270 272 275 277 280 282 282 283 285 286 287 288 289 289 291 293 293 295 296 296 297 297 298
257 255 254 253 251 248 246 248 251 254 257 260 260 260 264 266 268 270 270 270 270 272 274 278 281 281 280 281 284 286 286 287 288 289 292 294 295 295 295 295 295 296 297
254 254 253 253 250 247 246 248 252 255 258 261 262 261 264 268 269 271 272 273 273 275 278 280 279 279 279 281 284 285 285 286 287 288 291 293 294 293 294 295 296 297 297
256 254 253 253 251 248 247 250 253 256 259 261 262 262 263 266 269 270 271 272 274 276 277 277 277 278 280 284 287 288 286 286 286 290 292 293 293 294 294 295 296 298 299
254 252 252 253 252 250 249 250 253 255 258 261 262 262 263 266 268 270 270 270 272 274 275 277 278 279 282 285 288 289 289 289 289 290 292 294 295 295 295 295 297 298 299
Height
5817 5816 5815 5814 5813 5812 5810 5809 5807 5805 5803 5801 5799 5798 5796 5795 5795 5795 5795 5795 5795 5796 5796 5796 5796 5797 5798 5798 5799 5799 5799 5799 5799 5799 5799 5799 5800 5800 5800 5800 5800 5800 5800
5811 5810 5810 5809 5808 5806 5805 5804 5802 5800 5798 5796 5794 5792 5791 5790 5790 5789 5789 5789 5790 5790 5790 5791 5791 5791 5792 5792 5793 5793 5793 5793 5794 5794 5793 5793 5793 5793 5794 5794 5794 5794 5794
5805 5805 5804 5803 5802 5801 5800 5798 5797 5795 5793 5791 5789 5787 5786 5785 5785 5785 5784 5784 5784 5785 5785 5785 5785 5786 5786 5787 5787 5787 5788 5788 5788 5788 5787 5787 5787 5788 5788 5788 5788 5788 5787
5800 5799 5798 5797 5796 5795 5794 5793 5791 5789 5788 5786 5784 5783 5782 5781 5780 5780 5779 5779 5779 5779 5779 5779 5780 5780 5781 5781 5782 5782 5782 5782 5782 5782 5782 5782 5782 5782 5782 5782 5782 5782 5781
5794 5793 5793 5792 5791 5789 5788 5787 5785 5784 5782 5781 5779 5778 5777 5777 5776 5776 5775 5774 5774 5774 5774 5774 5774 5775 5775 5776 5776 5777 5777 5777 5776 5776 5776 5776 5776 5776 5776 5776 5775 5775 5774
5788 5788 5787 5786 5785 5784 5782 5781 5780 5779 5777 5776 5775 5774 5773 5772 5772 5771 5771 5770 5770 5769 5769 5768 5768 5769 5770 5771 5771 5772 5772 5772 5771 5771 5771 5771 5770 5770 5770 5769 5769 5768 5768
5782 5782 5781 5780 5779 5778 5777 5776 5775 5774 5772 5771 5770 5769 5768 5768 5768 5767 5767 5766 5766 5765 5765 5764 5764 5765 5765 5766 5767 5767 5767 5767 5767 5766 5766 5765 5765 5765 5764 5763 5762 5761 5760
5776 5775 5775 5774 5774 5773 5772 5771 5770 5769 5768 5767 5766 5765 5764 5763 5763 5763 5763 5762 5762 5762 5762 5761 5761 5761 5762 5762 5763 5763 5763 5763 5762 5761 5761 5760 5760 5759 5758 5757 5755 5755 5754
5769 5769 5769 5769 5768 5768 5767 5766 5766 5764 5763 5762 5761 5760 5759 5759 5759 5759 5759 5758 5758 5758 5758 5758 5758 5758 5759 5759 5759 5759 5759 5758 5758 5757 5756 5756 5755 5753 5752 5751 5750 5749 5748
5763 5763 5763 5763 5763 5762 5762 5761 5761 5760 5758 5757 5757 5756 5755 5755 5755 5755 5755 5755 5755 5755 5755 5755 5755 5755 5755 5755 5755 5755 5754 5754 5753 5753 5752 5751 5750 5748 5747 5745 5744 5744 5742
5757 5757 5757 5757 5757 5757 5756 5756 5755 5755 5754 5753 5753 5752 5752 5752 5752 5752 5752 5752 5752 5752 5752 5752 5752 5752 5752 5752 5752 5751 5751 5750 5749 5748 5747 5746 5745 5743 5742 5740 5739 5738 5736
5751 5751 5751 5751 5751 5751 5751 5751 5750 5750 5750 5749 5749 5749 5748 5748 5749 5749 5749 5749 5749 5749 5749 5749 5749 5749 5749 5749 5748 5748 5747 5746 5745 5743 5743 5741 5740 5738 5737 5735 5734 5732 5731
5745 5745 5746 5746 5746 5746 5746 5746 5746 5745 5745 5745 5745 5745 5745 5745 5745 5745 5745 5746 5746 5746 5746 5746 5746 5746 5745 5745 5744 5743 5742 5742 5741 5739 5738 5737 5735 5733 5732 5730 5729 5727 5725
5739 5739 5740 5740 5740 5741 5741 5741 5741 5740 5740 5740 5740 5741 5741 5741 5741 5742 5742 5742 5742 5743 5743 5742 5742 5742 5742 5741 5740 5739 5738 5737 5736 5734 5733 5731 5730 5728 5726 5725 5723 5721 5720
5732 5733 5734 5734 5734 5735 5735 5736 5736 5736 5736 5736 5735 5736 5736 5737 5737 5738 5738 5739 5739 5739 5739 5739 5738 5738 5737 5736 5736 5734 5733 5732 5730 5729 5728 5726 5724 5722 5720 5719 5717 5715 5713
5726 5726 5727 5728 5728 5729 5730 5730 5730 5730 5730 5730 5730 5731 5731 5732 5732 5733 5734 5734 5734 5734 5734 5734 5734 5733 5733 5732 5731 5730 5728 5727 5725 5724 5722 5720 5718 5716 5714 5712 5710 5708 5706
5719 5720 5720 5721 5722 5723 5724 5724 5725 5725 5725 5725 5725 5726 5726 5727 5727 5728 5729 5730 5730 5730 5730 5730 5729 5729 5728 5727 5726 5724 5723 5721 5720 5718 5716 5714 5712 5710 5708 5706 5704 5702 5700
5712 5713 5714 5715 5716 5717 5718 5718 5718 5719 5719 5719 5720 5721 5721 5722 5723 5723 5724 5725 5725 5725 5725 5725 5724 5723 5722 5721 5720 5719 5717 5715 5714 5712 5710 5708 5706 5704 5702 5700 5698 5695 5693
5706 5706 5707 5708 5709 5711 5712 5712 5713 5713 5714 5714 5715 5715 5716 5717 5718 5718 5719 5719 5719 5719 5719 5719 5718 5717 5716 5715 5714 5713 5711 5709 5707 5706 5704 5702 5700 5698 5695 5693 5691 5689 5686
5699 5700 5701 5702 5703 5704 5705 5706 5706 5707 5708 5709 5710 5711 5711 5712 5712 5713 5713 5714 5714 5713 5713 5713 5712 5711 5710 5709 5707 5706 5704 5703 5701 5700 5698 5696 5693 5691 5689 5687 5685 5682 5680
5693 5694 5695 5696 5697 5698 5699 5700 5701 5702 5703 5704 5704 5705 5706 5706 5707 5707 5707 5707 5707 5707 5707 5706 5705 5704 5703 5702 5701 5699 5698 5696 5695 5693 5691 5689 5687 5685 5683 5680 5678 5676 5673
5686 5687 5688 5690 5691 5692 5693 5694 5695 5696 5697 5698 5698 5699 5699 5700 5700 5700 5700 5701 5700 5700 5700 5699 5698 5697 5696 5695 5694 5693 5691 5690 5688 5687 5684 5682 5680 5678 5676 5673 5671 5669 5666
5680 5681 5682 5683 5684 5685 5687 5688 5689 5690 5691 5692 5692 5693 5693 5693 5694 5694 5694 5694 5693 5693 5692 5692 5691 5690 5689 5688 5687 5686 5685 5683 5682 5680 5678 5676 5674 5671 5669 5666 5664 5661 5659
5674 5675 5676 5677 5678 5679 5681 5682 5683 5684 5684 5685 5686 5686 5687 5687 5687 5687 5687 5687 5686 5686 5685 5684 5683 5683 5682 5681 5680 5679 5677 5676 5674 5673 5671 5669 5666 5664 5662 5659 5656 5654 5651
5668 5669 5669 5670 5672 5673 5674 5675 5676 5677 5678 5678 5679 5680 5680 5680 5681 5681 5680 5680 5679 5679 5678 5677 5676 5676 5675 5674 5673 5671 5670 5668 5667 5665 5663 5661 5659 5656 5654 5651 5649 5646 5643
5661 5662 5663 5664 5665 5666 5667 5668 5670 5671 5671 5672 5672 5673 5673 5673 5673 5673 5673 5673 5672 5672 5671 5671 5670 5669 5668 5667 5665 5664 5662 5660 5659 5657 5655 5653 5651 5648 5646 5643 5640 5638 5635